Le nostre stazioni meteo in Italia

Pubblicità
Il mio iltempo24.it
Desenzano, Italia (16089): Temperatura & dewpoint: 09.09.2019 21:00:00 - 15.09.2019 21:00:00 (CEST)Desenzano, Italia (16089): velocità del vento: 09.09.2019 21:00:00 - 15.09.2019 21:00:00 (CEST)Desenzano, Italia (16089): direzione del vento: 09.09.2019 21:00:00 - 15.09.2019 21:00:00 (CEST)Desenzano, Italia (16089): reduced air pressure: 09.09.2019 21:00:00 - 15.09.2019 21:00:00 (CEST)
Data & Tempo tt [°C] td [°C] ff [km/h] ff [kn] dd ppp [hPa]
15.09.2019 21:00:00 - - - - - -
15.09.2019 20:00:00 25,3 19,4 0 0 N 1021,3
15.09.2019 19:00:00 26,6 19,2 0 0 N 1021,2
15.09.2019 18:00:00 27,2 19,0 4 2 S 1021,4
15.09.2019 17:00:00 27,5 19,2 2 1 E 1021,6
15.09.2019 16:00:00 27,7 19,2 4 2 S 1022,2
15.09.2019 15:00:00 27,8 19,5 8 4 SO 1023,0
15.09.2019 14:00:00 27,3 19,8 4 2 SO 1023,8
15.09.2019 13:00:00 26,5 21,6 5 3 S 1024,7
15.09.2019 12:00:00 25,2 22,6 4 2 NO 1025,4
15.09.2019 11:00:00 24,7 22,9 0 0 N 1026,0
15.09.2019 10:00:00 24,4 22,8 0 0 N 1026,0
15.09.2019 09:00:00 24,3 22,5 0 0 N 1025,6
15.09.2019 08:00:00 23,6 21,8 2 1 NNO 1025,6
15.09.2019 07:00:00 23,1 21,3 0 0 N 1025,7
15.09.2019 06:00:00 23,7 21,3 0 0 N 1025,1
15.09.2019 05:00:00 23,4 21,6 2 1 NE 1025,4
15.09.2019 04:00:00 23,5 21,3 0 0 N 1025,9
15.09.2019 03:00:00 23,4 21,2 0 0 N 1026,4
15.09.2019 02:00:00 22,9 21,1 0 0 N 1026,2
15.09.2019 01:00:00 23,6 22,5 0 0 N 1026,2
15.09.2019 00:00:00 23,9 23,0 0 0 N 1026,6
14.09.2019 23:00:00 23,9 22,6 0 0 N 1027,1
14.09.2019 22:00:00 23,9 22,5 0 0 N 1027,0
14.09.2019 21:00:00 24,2 21,6 0 0 N 1026,5
14.09.2019 20:00:00 24,7 21,0 0 0 N 1026,1
14.09.2019 19:00:00 25,8 22,8 0 0 N 1025,9
14.09.2019 18:00:00 25,8 23,2 5 3 N 1025,7
14.09.2019 17:00:00 26,0 22,2 8 4 N 1026,1
14.09.2019 16:00:00 26,1 22,9 5 3 NNE 1026,7
14.09.2019 15:00:00 25,7 21,7 4 2 N 1027,3
14.09.2019 14:00:00 25,6 20,3 4 2 NNO 1027,9
14.09.2019 13:00:00 25,1 21,7 5 3 NNO 1028,3
14.09.2019 12:00:00 24,4 21,1 4 2 NNO 1028,9
14.09.2019 11:00:00 24,1 21,4 9 5 NNO 1029,2
14.09.2019 10:00:00 23,8 21,4 15 8 NNO 1029,1
14.09.2019 09:00:00 23,6 21,1 5 3 NO 1028,9
14.09.2019 08:00:00 23,4 21,4 15 8 N 1028,5
14.09.2019 07:00:00 22,7 20,9 11 6 ONO 1028,0
14.09.2019 06:00:00 22,7 20,0 2 1 ONO 1027,6
14.09.2019 05:00:00 23,3 22,4 15 8 ONO 1027,7
14.09.2019 04:00:00 23,4 21,1 4 2 NNO 1028,0
14.09.2019 03:00:00 22,9 20,4 4 2 NNO 1028,2
14.09.2019 02:00:00 23,1 21,8 4 2 ONO 1028,4
14.09.2019 01:00:00 21,7 19,4 0 0 N 1028,5
14.09.2019 00:00:00 22,2 20,4 0 0 N 1028,5
13.09.2019 23:00:00 22,8 20,6 0 0 N 1028,6
13.09.2019 22:00:00 23,6 21,4 0 0 N 1028,0
13.09.2019 21:00:00 24,2 21,3 0 0 N 1027,8
13.09.2019 20:00:00 25,1 20,9 0 0 N 1027,3
13.09.2019 19:00:00 26,5 18,6 2 1 S 1027,1
13.09.2019 18:00:00 26,4 20,0 2 1 E 1027,3
13.09.2019 17:00:00 26,0 23,0 2 1 NO 1027,7
13.09.2019 16:00:00 25,6 23,2 5 3 NNO 1028,1
13.09.2019 15:00:00 25,6 21,8 2 1 NNO 1028,6
13.09.2019 14:00:00 25,2 20,2 4 2 N 1029,2
13.09.2019 13:00:00 24,8 18,7 4 2 N 1029,7
13.09.2019 12:00:00 24,4 19,8 4 2 NNO 1030,6
13.09.2019 11:00:00 24,1 20,4 9 5 NNO 1030,8
13.09.2019 10:00:00 23,5 20,8 21 11 NNO 1030,9
13.09.2019 09:00:00 23,3 20,6 21 11 NNO 1030,4
13.09.2019 08:00:00 23,0 20,7 18 10 NNO 1030,3
13.09.2019 07:00:00 22,9 19,8 8 4 NO 1030,2
13.09.2019 06:00:00 23,3 20,2 11 6 NO 1029,8
13.09.2019 05:00:00 23,3 20,2 8 4 NO 1029,4
13.09.2019 04:00:00 23,3 20,2 8 4 NO 1029,2
13.09.2019 03:00:00 23,6 20,7 9 5 ONO 1029,0
13.09.2019 02:00:00 23,4 21,2 5 3 NO 1029,2
13.09.2019 01:00:00 21,9 20,7 0 0 N 1029,1
13.09.2019 00:00:00 21,9 21,0 0 0 N 1029,0
12.09.2019 23:00:00 22,1 20,9 0 0 N 1029,0
12.09.2019 22:00:00 23,0 20,8 0 0 N 1028,6
12.09.2019 21:00:00 23,7 21,7 0 0 N 1028,4
12.09.2019 20:00:00 24,4 21,5 0 0 N 1027,7
12.09.2019 19:00:00 25,6 23,4 0 0 N 1027,6
12.09.2019 18:00:00 25,8 22,0 0 0 N 1027,4
12.09.2019 17:00:00 25,7 23,3 0 0 N 1027,7
12.09.2019 16:00:00 25,6 20,8 4 2 N 1028,1
12.09.2019 15:00:00 25,5 17,4 2 1 N 1028,3
12.09.2019 14:00:00 25,5 17,9 0 0 N 1028,7
12.09.2019 13:00:00 25,0 17,6 0 0 N 1028,9
12.09.2019 12:00:00 24,2 17,8 0 0 N 1029,0
12.09.2019 11:00:00 23,5 18,5 2 1 N 1028,7
12.09.2019 10:00:00 23,6 19,1 11 6 NNO 1028,1
12.09.2019 09:00:00 22,6 19,1 11 6 NNO 1027,2
12.09.2019 08:00:00 22,4 18,9 8 4 ONO 1026,7
12.09.2019 07:00:00 21,9 19,2 8 4 ONO 1026,1
12.09.2019 06:00:00 22,3 19,4 11 6 NO 1025,4
12.09.2019 05:00:00 22,3 19,4 9 5 NO 1025,1
12.09.2019 04:00:00 22,0 19,7 8 4 NO 1024,7
12.09.2019 03:00:00 21,2 18,5 2 1 NO 1024,5
12.09.2019 02:00:00 22,2 20,1 8 4 NO 1024,3
12.09.2019 01:00:00 22,0 20,0 2 1 O 1024,2
12.09.2019 00:00:00 21,1 19,5 0 0 N 1023,9
11.09.2019 23:00:00 21,3 19,2 0 0 N 1023,5
11.09.2019 22:00:00 22,2 18,7 0 0 N 1022,9
11.09.2019 21:00:00 23,1 18,4 0 0 N 1022,1
11.09.2019 20:00:00 24,1 17,0 0 0 N 1021,2
11.09.2019 19:00:00 25,2 19,7 0 0 N 1020,7
11.09.2019 18:00:00 25,1 19,9 5 3 NNE 1020,6
11.09.2019 17:00:00 25,0 19,5 8 4 NE 1020,3
11.09.2019 16:00:00 24,9 17,8 8 4 NE 1020,6
11.09.2019 15:00:00 25,1 16,2 5 3 NNE 1020,8
11.09.2019 14:00:00 24,4 16,1 5 3 NNE 1021,2
11.09.2019 13:00:00 24,2 15,9 2 1 NO 1021,2
11.09.2019 12:00:00 23,9 16,6 9 5 ONO 1021,4
11.09.2019 11:00:00 22,1 17,0 16 9 NNO 1021,5
11.09.2019 10:00:00 21,4 16,7 29 16 NNO 1021,1
11.09.2019 09:00:00 21,0 16,5 15 8 NNO 1020,5
11.09.2019 08:00:00 20,7 17,1 9 5 NO 1020,2
11.09.2019 07:00:00 20,7 17,4 11 6 NO 1020,0
11.09.2019 06:00:00 21,0 18,7 22 12 NNO 1019,6
11.09.2019 05:00:00 17,7 16,7 0 0 N 1019,7
11.09.2019 04:00:00 18,0 16,6 0 0 N 1019,8
11.09.2019 03:00:00 18,5 16,8 0 0 N 1019,7
11.09.2019 02:00:00 19,1 16,4 0 0 N 1019,5
11.09.2019 01:00:00 20,4 16,2 0 0 N 1019,5
11.09.2019 00:00:00 21,3 16,6 0 0 N 1019,3
10.09.2019 23:00:00 21,5 16,2 2 1 S 1018,6
10.09.2019 22:00:00 21,7 16,1 0 0 N 1018,3
10.09.2019 21:00:00 23,1 16,1 0 0 N 1017,6
10.09.2019 20:00:00 24,0 15,9 0 0 N 1017,0
10.09.2019 19:00:00 24,6 16,2 2 1 E 1016,6
10.09.2019 18:00:00 24,9 16,0 8 4 E 1016,2
10.09.2019 17:00:00 24,9 17,0 21 11 ENE 1016,1
10.09.2019 16:00:00 25,3 16,9 15 8 ENE 1016,0
10.09.2019 15:00:00 24,8 16,7 13 7 ENE 1016,3
10.09.2019 14:00:00 23,7 17,1 9 5 N 1016,5
10.09.2019 13:00:00 23,8 17,2 9 5 NNO 1016,6
10.09.2019 12:00:00 23,3 16,5 9 5 NO 1016,8
10.09.2019 11:00:00 21,7 15,2 8 4 N 1016,8
10.09.2019 10:00:00 21,2 15,7 5 3 NNE 1016,6
10.09.2019 09:00:00 20,2 14,9 15 8 N 1015,9
10.09.2019 08:00:00 20,2 16,6 35 19 NNO 1016,0
10.09.2019 07:00:00 20,3 17,1 28 15 NNO 1015,4
10.09.2019 06:00:00 20,4 16,6 26 14 NNO 1015,3
10.09.2019 05:00:00 20,1 16,7 18 10 NO 1015,2
10.09.2019 04:00:00 20,5 16,7 15 8 NNO 1015,4
10.09.2019 03:00:00 20,4 16,6 13 7 NNO 1015,6
10.09.2019 02:00:00 20,5 17,1 13 7 NNO 1015,3
10.09.2019 01:00:00 17,5 14,5 0 0 N 1015,2
10.09.2019 00:00:00 18,0 15,6 0 0 N 1015,1
09.09.2019 23:00:00 18,4 15,0 0 0 N 1014,8
09.09.2019 22:00:00 18,8 13,8 0 0 N 1014,5
09.09.2019 21:00:00 20,2 13,3 0 0 N 1013,9

tt = Temperatura
td = dewpoint
ff = velocità del vento
dd = direzione del vento
ppp = reduced air pressure

Stazioni seguenti

WeatherPro
AMSI
MeteoEarth